EDW537 LROP-LRIA

Flight info

Callsign EDW537
Flight time 0h 46m
Altitude 9000
Route DENAK T74 ISI
Aircraft A20N/M-SDE2E3FGHIRWXY/LB1

Departure

Time 2026-04-24 16:11
Airport Bucharest Henri Coandă International Airport (LROP)

Arrival

Time 2026-04-24 16:57
Airport Iaşi International Airport (LRIA)
Time Latitude Longitude Altitude Speed Heading
2026-04-24 15:45 44.57117 26.08229 322 ft 0 kts 219°
2026-04-24 15:57 44.57122 26.08234 320 ft 1 kts 219°
2026-04-24 15:58 44.57128 26.08241 319 ft 1 kts 219°
2026-04-24 15:58 44.57134 26.08248 318 ft 1 kts 219°
2026-04-24 15:58 44.57140 26.08255 319 ft 1 kts 219°
2026-04-24 15:58 44.57145 26.08261 319 ft 1 kts 219°
2026-04-24 15:59 44.57151 26.08268 318 ft 1 kts 219°
2026-04-24 15:59 44.57157 26.08275 318 ft 1 kts 219°
2026-04-24 15:59 44.57167 26.08286 320 ft 3 kts 219°
2026-04-24 15:59 44.57181 26.08302 318 ft 3 kts 211°
2026-04-24 16:00 44.57198 26.08310 321 ft 3 kts 166°
2026-04-24 16:00 44.57216 26.08301 319 ft 3 kts 127°
2026-04-24 16:00 44.57219 26.08291 319 ft 0 kts 92°
2026-04-24 16:01 44.57219 26.08307 320 ft 8 kts 89°
2026-04-24 16:02 44.57229 26.08420 321 ft 15 kts 82°
2026-04-24 16:02 44.57297 26.08495 320 ft 15 kts
2026-04-24 16:02 44.57407 26.08479 321 ft 17 kts 348°
2026-04-24 16:02 44.57491 26.08532 322 ft 14 kts 67°
2026-04-24 16:03 44.57503 26.08665 322 ft 15 kts 85°
2026-04-24 16:03 44.57514 26.08822 321 ft 18 kts 83°
2026-04-24 16:03 44.57541 26.08996 320 ft 17 kts 72°
2026-04-24 16:03 44.57551 26.09147 322 ft 13 kts 90°
2026-04-24 16:04 44.57556 26.09292 319 ft 17 kts 85°
2026-04-24 16:04 44.57566 26.09471 322 ft 20 kts 85°
2026-04-24 16:04 44.57582 26.09681 322 ft 23 kts 82°
2026-04-24 16:04 44.57581 26.09800 320 ft 8 kts 121°
2026-04-24 16:05 44.57445 26.09850 321 ft 13 kts 172°
2026-04-24 16:05 44.57346 26.09869 321 ft 16 kts 174°
2026-04-24 16:06 44.57100 26.09903 321 ft 20 kts 174°
2026-04-24 16:06 44.57031 26.10024 322 ft 20 kts 86°
2026-04-24 16:06 44.57064 26.10459 322 ft 19 kts 85°
2026-04-24 16:07 44.57053 26.10589 320 ft 14 kts 116°
2026-04-24 16:07 44.56989 26.10714 322 ft 17 kts 144°
2026-04-24 16:07 44.56730 26.10787 319 ft 20 kts 147°
2026-04-24 16:08 44.56717 26.10972 321 ft 22 kts 85°
2026-04-24 16:08 44.56753 26.11437 321 ft 27 kts 86°
2026-04-24 16:09 44.56800 26.11937 321 ft 18 kts 69°
2026-04-24 16:09 44.56798 26.11969 321 ft 2 kts 212°
2026-04-24 16:09 44.56790 26.11949 320 ft 0 kts 251°
2026-04-24 16:09 44.56778 26.11862 322 ft 30 kts 261°
2026-04-24 16:10 44.56518 26.08545 673 ft 160 kts 263°
2026-04-24 16:11 44.56287 26.05474 2460 ft 165 kts 265°
2026-04-24 16:11 44.56166 26.03759 3070 ft 185 kts 265°
2026-04-24 16:11 44.56068 26.01959 4171 ft 184 kts 268°
2026-04-24 16:12 44.56976 25.98083 5405 ft 241 kts 316°
2026-04-24 16:12 44.58490 25.96900 6123 ft 260 kts 344°
2026-04-24 16:12 44.61997 25.98054 8193 ft 275 kts 34°
2026-04-24 16:13 44.63459 25.99835 9268 ft 280 kts 41°
2026-04-24 16:13 44.66379 26.03745 10619 ft 310 kts 39°
2026-04-24 16:14 44.69821 26.07928 10880 ft 332 kts 37°
2026-04-24 16:14 44.71591 26.10004 10883 ft 331 kts 37°
2026-04-24 16:14 44.74552 26.13453 10885 ft 334 kts 36°
2026-04-24 16:15 44.75736 26.14832 10885 ft 333 kts 36°
2026-04-24 16:15 44.79884 26.19672 10889 ft 333 kts 36°
2026-04-24 16:16 44.83448 26.23841 10890 ft 333 kts 37°
2026-04-24 16:16 44.85232 26.25930 10893 ft 333 kts 37°
2026-04-24 16:17 44.90577 26.32205 10897 ft 333 kts 36°
2026-04-24 16:17 44.94138 26.36392 10899 ft 334 kts 36°
2026-04-24 16:18 44.97702 26.40591 10899 ft 333 kts 36°
2026-04-24 16:18 45.01644 26.43820 10902 ft 325 kts 14°
2026-04-24 16:18 45.03844 26.44491 10902 ft 323 kts
2026-04-24 16:19 45.08245 26.45580 10905 ft 325 kts
2026-04-24 16:19 45.10473 26.46144 10901 ft 323 kts
2026-04-24 16:20 45.14907 26.47266 10908 ft 324 kts
2026-04-24 16:20 45.19332 26.48387 10903 ft 323 kts
2026-04-24 16:20 45.21548 26.48947 10910 ft 324 kts
2026-04-24 16:21 45.25979 26.50071 10901 ft 322 kts
2026-04-24 16:21 45.28197 26.50633 10904 ft 329 kts
2026-04-24 16:21 45.30454 26.51204 10909 ft 328 kts
2026-04-24 16:22 45.32688 26.51773 10906 ft 327 kts
2026-04-24 16:22 45.37175 26.52917 10908 ft 328 kts
2026-04-24 16:22 45.39413 26.53488 10907 ft 327 kts
2026-04-24 16:23 45.41661 26.54064 10911 ft 328 kts
2026-04-24 16:23 45.43881 26.54631 10910 ft 328 kts
2026-04-24 16:23 45.46115 26.55201 10910 ft 326 kts
2026-04-24 16:24 45.50500 26.56198 10910 ft 312 kts
2026-04-24 16:24 45.52660 26.56697 10917 ft 318 kts
2026-04-24 16:24 45.54871 26.57242 10913 ft 322 kts
2026-04-24 16:24 45.57052 26.57813 10919 ft 315 kts
2026-04-24 16:25 45.59213 26.58345 10918 ft 319 kts
2026-04-24 16:25 45.61412 26.58967 10911 ft 321 kts
2026-04-24 16:25 45.63570 26.59596 10916 ft 320 kts
2026-04-24 16:26 45.67914 26.60788 10906 ft 318 kts
2026-04-24 16:26 45.70109 26.61358 10922 ft 321 kts
2026-04-24 16:26 45.74462 26.62490 10927 ft 317 kts
2026-04-24 16:27 45.76658 26.63053 10925 ft 321 kts
2026-04-24 16:27 45.78860 26.63619 10924 ft 321 kts
2026-04-24 16:27 45.81046 26.64186 10920 ft 316 kts
2026-04-24 16:27 45.83195 26.64742 10927 ft 316 kts
2026-04-24 16:28 45.85391 26.65311 10922 ft 321 kts
2026-04-24 16:28 45.87583 26.65878 10933 ft 319 kts
2026-04-24 16:28 45.91934 26.67004 10924 ft 318 kts
2026-04-24 16:29 45.94087 26.67563 10928 ft 319 kts
2026-04-24 16:29 45.96267 26.68130 10926 ft 318 kts
2026-04-24 16:29 46.00623 26.69265 10923 ft 317 kts
2026-04-24 16:30 46.04968 26.70401 10926 ft 316 kts
2026-04-24 16:30 46.07128 26.70969 10928 ft 316 kts
2026-04-24 16:30 46.09302 26.71540 10936 ft 318 kts
2026-04-24 16:31 46.11498 26.72114 10927 ft 322 kts
2026-04-24 16:31 46.13669 26.72683 10925 ft 320 kts
2026-04-24 16:31 46.15865 26.73289 10931 ft 321 kts
2026-04-24 16:31 46.18061 26.73899 10930 ft 321 kts
2026-04-24 16:32 46.20261 26.74497 10927 ft 320 kts
2026-04-24 16:32 46.22454 26.75078 10928 ft 321 kts
2026-04-24 16:32 46.24648 26.75652 10928 ft 320 kts
2026-04-24 16:32 46.26843 26.76225 10927 ft 320 kts
2026-04-24 16:33 46.29005 26.76788 10931 ft 320 kts
2026-04-24 16:33 46.31197 26.77363 10931 ft 319 kts
2026-04-24 16:33 46.33375 26.77933 10930 ft 318 kts
2026-04-24 16:33 46.35556 26.78503 10931 ft 320 kts
2026-04-24 16:34 46.37745 26.79074 10928 ft 319 kts
2026-04-24 16:34 46.39937 26.79649 10931 ft 319 kts
2026-04-24 16:34 46.42122 26.80222 10917 ft 320 kts
2026-04-24 16:34 46.44313 26.80796 10910 ft 319 kts
2026-04-24 16:35 46.46493 26.81368 10739 ft 317 kts
2026-04-24 16:35 46.48660 26.81943 10428 ft 317 kts
2026-04-24 16:35 46.50786 26.82834 10056 ft 320 kts 18°
2026-04-24 16:35 46.52740 26.84291 9883 ft 312 kts 28°
2026-04-24 16:36 46.54485 26.86067 9525 ft 307 kts 31°
2026-04-24 16:36 46.56233 26.87873 9126 ft 301 kts 31°
2026-04-24 16:36 46.57893 26.89579 8918 ft 290 kts 31°
2026-04-24 16:36 46.59518 26.91248 8682 ft 282 kts 30°
2026-04-24 16:37 46.61096 26.92868 8428 ft 274 kts 30°
2026-04-24 16:37 46.62633 26.94447 8162 ft 267 kts 30°
2026-04-24 16:37 46.64132 26.95988 7903 ft 261 kts 30°
2026-04-24 16:37 46.65600 26.97499 7634 ft 255 kts 30°
2026-04-24 16:38 46.67034 26.98977 7387 ft 250 kts 31°
2026-04-24 16:38 46.68442 27.00428 7141 ft 246 kts 31°
2026-04-24 16:38 46.69824 27.01860 6898 ft 242 kts 30°
2026-04-24 16:38 46.71188 27.03269 6649 ft 238 kts 30°
2026-04-24 16:39 46.72531 27.04655 6403 ft 235 kts 30°
2026-04-24 16:39 46.73855 27.06024 6142 ft 232 kts 30°
2026-04-24 16:39 46.75166 27.07380 5825 ft 231 kts 30°
2026-04-24 16:39 46.76497 27.08754 5323 ft 238 kts 31°
2026-04-24 16:40 46.77859 27.10160 4950 ft 239 kts 32°
2026-04-24 16:40 46.79200 27.11555 4713 ft 234 kts 32°
2026-04-24 16:40 46.80518 27.12927 4479 ft 230 kts 33°
2026-04-24 16:40 46.81807 27.14268 4247 ft 226 kts 32°
2026-04-24 16:41 46.83075 27.15591 4018 ft 222 kts 32°
2026-04-24 16:41 46.84302 27.16869 3920 ft 212 kts 32°
2026-04-24 16:41 46.85469 27.18089 3919 ft 201 kts 32°
2026-04-24 16:41 46.86617 27.19287 3920 ft 204 kts 32°
2026-04-24 16:42 46.87752 27.20478 3947 ft 193 kts 31°
2026-04-24 16:42 46.88785 27.21569 3922 ft 176 kts 30°
2026-04-24 16:42 46.89803 27.22627 3930 ft 179 kts 30°
2026-04-24 16:42 46.90810 27.23671 3919 ft 176 kts 30°
2026-04-24 16:43 46.91829 27.24688 3924 ft 179 kts 33°
2026-04-24 16:43 46.92780 27.25876 3924 ft 181 kts 36°
2026-04-24 16:43 46.93713 27.27088 3926 ft 181 kts 36°
2026-04-24 16:43 46.94662 27.28289 3927 ft 181 kts 34°
2026-04-24 16:44 46.95564 27.29422 3909 ft 158 kts 35°
2026-04-24 16:44 46.96412 27.30419 3918 ft 155 kts 30°
2026-04-24 16:44 46.97282 27.31342 3919 ft 157 kts 30°
2026-04-24 16:44 46.98187 27.32256 3921 ft 158 kts 28°
2026-04-24 16:45 46.99096 27.33151 3925 ft 158 kts 28°
2026-04-24 16:45 47.00008 27.34046 3920 ft 157 kts 28°
2026-04-24 16:45 47.00911 27.34946 3921 ft 157 kts 29°
2026-04-24 16:45 47.01811 27.35824 3927 ft 157 kts 27°
2026-04-24 16:46 47.02715 27.36729 3925 ft 157 kts 28°
2026-04-24 16:46 47.03613 27.37647 3915 ft 157 kts 29°
2026-04-24 16:46 47.04517 27.38574 3922 ft 159 kts 29°
2026-04-24 16:46 47.05399 27.39508 3920 ft 155 kts 28°
2026-04-24 16:47 47.06288 27.40407 3918 ft 156 kts 27°
2026-04-24 16:47 47.07183 27.41298 3921 ft 156 kts 27°
2026-04-24 16:47 47.08079 27.42198 3921 ft 156 kts 26°
2026-04-24 16:47 47.08990 27.43074 3921 ft 156 kts 26°
2026-04-24 16:48 47.09879 27.43939 3922 ft 156 kts 26°
2026-04-24 16:48 47.10775 27.44838 3924 ft 156 kts 25°
2026-04-24 16:48 47.11705 27.45633 3936 ft 154 kts 22°
2026-04-24 16:48 47.12686 27.46192 3943 ft 150 kts
2026-04-24 16:49 47.13710 27.46498 3937 ft 150 kts
2026-04-24 16:49 47.14734 27.46790 3937 ft 149 kts
2026-04-24 16:49 47.15758 27.46957 3935 ft 146 kts 354°
2026-04-24 16:49 47.16709 27.46501 3936 ft 145 kts 336°
2026-04-24 16:50 47.17332 27.46147 3936 ft 144 kts 338°
2026-04-24 16:50 47.18590 27.45452 3938 ft 145 kts 338°
2026-04-24 16:50 47.19532 27.44929 3939 ft 145 kts 338°
2026-04-24 16:50 47.20453 27.44377 3932 ft 145 kts 336°
2026-04-24 16:51 47.21370 27.43815 3938 ft 140 kts 336°
2026-04-24 16:51 47.22272 27.43274 3934 ft 140 kts 336°
2026-04-24 16:51 47.23170 27.42738 3937 ft 140 kts 336°
2026-04-24 16:51 47.24074 27.42182 3937 ft 141 kts 336°
2026-04-24 16:52 47.25009 27.41744 3934 ft 142 kts 348°
2026-04-24 16:52 47.25991 27.42010 3936 ft 152 kts 19°
2026-04-24 16:52 47.26870 27.42906 3943 ft 160 kts 38°
2026-04-24 16:52 47.27653 27.44117 3930 ft 162 kts 37°
2026-04-24 16:53 47.28422 27.45277 3927 ft 149 kts 44°
2026-04-24 16:53 47.28726 27.46687 3943 ft 146 kts 71°
2026-04-24 16:53 47.28935 27.48158 3712 ft 146 kts 68°
2026-04-24 16:53 47.29168 27.49616 3375 ft 148 kts 69°
2026-04-24 16:54 47.29154 27.51106 3122 ft 152 kts 102°
2026-04-24 16:54 47.28491 27.52439 2645 ft 167 kts 139°
2026-04-24 16:54 47.27532 27.53464 2069 ft 177 kts 145°
2026-04-24 16:54 47.26542 27.54412 1782 ft 162 kts 148°
2026-04-24 16:55 47.25633 27.55300 1522 ft 152 kts 148°
2026-04-24 16:55 47.24761 27.56129 1317 ft 146 kts 148°
2026-04-24 16:55 47.23898 27.56911 1195 ft 145 kts 149°
2026-04-24 16:55 47.23038 27.57684 1118 ft 144 kts 149°
2026-04-24 16:56 47.22166 27.58418 965 ft 145 kts 150°
2026-04-24 16:56 47.21313 27.59172 879 ft 146 kts 149°
2026-04-24 16:56 47.20447 27.59948 804 ft 145 kts 149°
2026-04-24 16:56 47.19587 27.60711 589 ft 141 kts 150°
2026-04-24 16:57 47.18768 27.61428 420 ft 132 kts 149°
2026-04-24 16:57 47.18228 27.61908 388 ft 41 kts 148°
2026-04-24 16:57 47.17993 27.62116 378 ft 41 kts 149°
2026-04-24 16:57 47.17877 27.62193 374 ft 0 kts 184°
2026-04-24 16:58 47.17876 27.62193 374 ft 1 kts 184°
2026-04-24 16:58 47.17836 27.62149 375 ft 10 kts 231°
2026-04-24 16:58 47.17796 27.62046 376 ft 13 kts 244°
2026-04-24 16:58 47.17779 27.61995 376 ft 1 kts 244°
2026-04-24 16:59 47.17760 27.61938 377 ft 9 kts 244°
2026-04-24 16:59 47.17741 27.61886 377 ft 6 kts 239°
2026-04-24 16:59 47.17736 27.61872 377 ft 0 kts 238°